Zurück zum Katalog

FENGYUN 1C DEB

AktivSSO
NORAD 30022·DEBRIS·🇨🇳 China

Gestartet May 10, 1999 von Taiyuan Satellite Launch Center

Loading…

Nächste Überflüge (nächste 24 Stunden)

TLE

AktuellSource: Space-Track

Epoche: Sep 14, 2026, 02:57 UTC

1 30022U 99025MX  26257.12338916  .00000029  00000-0  32900-4 0  9996
2 30022  99.0403 118.1989 0067033 199.0689 313.2935 14.23207361 21077

Verfolge FENGYUN 1C DEB in Echtzeit mit AllMySat

Download on the App Store